,

(GMT )
Shannon

Weather History for EINN - August, 2013

Change the Weather History Date:

Monday, August 12, 2013

  Actual Average Record
Temperature  
Mean Temperature 58 °F -  
Max Temperature 64 °F 66 °F 73 °F (1997)
Min Temperature 53 °F 55 °F 44 °F (2015)
Degree Days  
Heating Degree Days 6    
Growing Degree Days 8 (Base 50)    
Moisture  
Dew Point 50 °F    
Average Humidity 72    
Maximum Humidity 88    
Minimum Humidity 51    
Precipitation  
Precipitation 0.02 in - - ()
Sea Level Pressure  
Sea Level Pressure 30.14 in    
Wind  
Wind Speed 10 mph ()    
Max Wind Speed 18 mph    
Max Gust Speed -    
Visibility 6.7 miles    
Events Rain    
Averages and records for this station are not official NWS values.
T = Trace of Precipitation, MM = Missing Value Source: Averaged Metar Reports

Daily Weather History Graph

Daily Weather History Graph

Search for Another Location

Airport or City:

Trip Planner

Search our weather history database for the weather conditions in past years. The results will help you decide how hot, cold, wet, or windy it might be!

Date:

Astronomy

Aug. 12, 2013 Rise Set
Actual Time 6:12 AM IST 9:07 PM IST
Civil Twilight 5:33 AM IST 9:46 PM IST
Nautical Twilight 4:41 AM IST 10:38 PM IST
Astronomical Twilight 3:35 AM IST 11:43 PM IST
Moon 12:43 PM IST (8/12) 10:54 PM IST (8/12)
Length of Visible Light 16h 13m
Length of Day
14h 54m
Waxing Crescent, 29% of the Moon is Illuminated
Aug 12
Waxing Crescent
Aug 14
First Quarter
Aug 21
Full
Aug 28
Last Quarter
Sep 5
New

Hourly Weather History & Observations

Time (IST) Temp. Dew Point Humidity Pressure Visibility Wind Dir Wind Speed Gust Speed Precip Events Conditions
12:00 AM 57.2 °F 51.8 °F 82% 30.09 in 6.2 mi West 11.5 mph - N/A   Mostly Cloudy
12:30 AM 55.4 °F 51.8 °F 88% 30.09 in 6.2 mi West 10.4 mph - N/A   Mostly Cloudy
1:00 AM 56 °F 51 °F 78% 30.11 in 16 mi WSW 8.9 mph - -   Partly Cloudy
1:00 AM 57.2 °F 51.8 °F 82% 30.09 in 6.2 mi WSW 9.2 mph - N/A   Mostly Cloudy
1:30 AM 57.2 °F 50.0 °F 77% 30.09 in 6.2 mi West 11.5 mph - N/A   Mostly Cloudy
2:00 AM 57.2 °F 50.0 °F 77% 30.09 in 6.2 mi West 8.1 mph - N/A   Mostly Cloudy
2:30 AM 57.2 °F 50.0 °F 77% 30.09 in 6.2 mi West 12.7 mph - N/A   Mostly Cloudy
3:00 AM 55.4 °F 50.0 °F 82% 30.09 in 6.2 mi West 11.5 mph - N/A   Mostly Cloudy
3:30 AM 57.2 °F 50.0 °F 77% 30.09 in 6.2 mi West 8.1 mph - N/A   Mostly Cloudy
4:00 AM 55.4 °F 50.0 °F 82% 30.09 in 6.2 mi WSW 9.2 mph - N/A   Mostly Cloudy
4:30 AM 55.4 °F 51.8 °F 88% 30.09 in 6.2 mi West 9.2 mph - N/A   Mostly Cloudy
5:00 AM 55.4 °F 51.8 °F 88% 30.09 in 6.2 mi WSW 8.1 mph - N/A   Mostly Cloudy
5:30 AM 55.4 °F 51.8 °F 88% 30.09 in 6.2 mi West 9.2 mph - N/A   Mostly Cloudy
6:00 AM 53.6 °F 50.0 °F 88% 30.09 in 6.2 mi West 11.5 mph - N/A   Mostly Cloudy
6:30 AM 55.4 °F 50.0 °F 82% 30.09 in 6.2 mi West 5.8 mph - N/A   Mostly Cloudy
7:00 AM 55 °F 50 °F 78% 30.12 in 19 mi WNW 6.7 mph - -   Partly Cloudy
7:00 AM 55.4 °F 50.0 °F 82% 30.09 in 6.2 mi WNW 5.8 mph - N/A   Mostly Cloudy
7:30 AM 53.6 °F 50.0 °F 88% 30.12 in 6.2 mi West 5.8 mph - N/A   Partly Cloudy
8:00 AM 57.2 °F 51.8 °F 82% 30.12 in 6.2 mi West 6.9 mph - N/A   Scattered Clouds
8:30 AM 59.0 °F 51.8 °F 77% 30.12 in 6.2 mi West 11.5 mph - N/A Rain Light Rain Showers
9:00 AM 57.2 °F 53.6 °F 88% 30.12 in 6.2 mi West 8.1 mph - N/A   Scattered Clouds
9:30 AM 60.8 °F 51.8 °F 72% 30.12 in 6.2 mi West 10.4 mph - N/A   Scattered Clouds
10:00 AM 60.8 °F 50.0 °F 68% 30.12 in 6.2 mi WNW 12.7 mph - N/A   Partly Cloudy
10:30 AM 62.6 °F 50.0 °F 63% 30.12 in 6.2 mi West 16.1 mph - N/A   Mostly Cloudy
11:00 AM 59.0 °F 51.8 °F 77% 30.15 in 6.2 mi West 15.0 mph - N/A   Mostly Cloudy
11:30 AM 57.2 °F 51.8 °F 82% 30.15 in 6.2 mi WNW 15.0 mph - N/A Rain Light Rain Showers
12:00 PM 59.0 °F 51.8 °F 77% 30.15 in 6.2 mi WNW 12.7 mph - N/A   Mostly Cloudy
12:30 PM 62.6 °F 51.8 °F 68% 30.15 in 6.2 mi WNW 18.4 mph - N/A   Mostly Cloudy
1:00 PM 62 °F 50 °F 55% 30.17 in 25 mi West 17.9 mph - -   Partly Cloudy
1:00 PM 62.6 °F 50.0 °F 63% 30.15 in 6.2 mi West 18.4 mph - N/A   Mostly Cloudy
1:30 PM 62.6 °F 51.8 °F 68% 30.15 in 6.2 mi West 18.4 mph - N/A   Mostly Cloudy
2:00 PM 62.6 °F 50.0 °F 63% 30.15 in 6.2 mi WNW 17.3 mph - N/A   Mostly Cloudy
2:30 PM 62.6 °F 48.2 °F 59% 30.15 in 6.2 mi West 16.1 mph - N/A   Scattered Clouds
3:00 PM 62.6 °F 48.2 °F 59% 30.15 in 6.2 mi WNW 16.1 mph - N/A   Scattered Clouds
3:30 PM 64.4 °F 48.2 °F 56% 30.15 in 6.2 mi WNW 16.1 mph - N/A   Scattered Clouds
4:00 PM 64.4 °F 46.4 °F 52% 30.15 in 6.2 mi West 16.1 mph - N/A   Mostly Cloudy
4:30 PM 62.6 °F 48.2 °F 59% 30.18 in 6.2 mi WNW 16.1 mph - N/A   Mostly Cloudy
5:00 PM 62.6 °F 46.4 °F 55% 30.18 in 6.2 mi West 17.3 mph - N/A   Mostly Cloudy
5:30 PM 62.6 °F 46.4 °F 55% 30.18 in 6.2 mi WNW 16.1 mph - N/A   Mostly Cloudy
6:00 PM 62.6 °F 48.2 °F 59% 30.18 in 6.2 mi West 13.8 mph - N/A   Mostly Cloudy
6:30 PM 60.8 °F 46.4 °F 59% 30.18 in 6.2 mi West 13.8 mph - N/A   Mostly Cloudy
7:00 PM 60 °F 47 °F 51% 30.19 in 31 mi West 11.2 mph - -   Scattered Clouds
7:00 PM 60.8 °F 46.4 °F 59% 30.18 in 6.2 mi West 11.5 mph - N/A   Mostly Cloudy
7:30 PM 59.0 °F 48.2 °F 67% 30.18 in 6.2 mi West 11.5 mph - N/A   Mostly Cloudy
8:00 PM 59.0 °F 48.2 °F 67% 30.18 in 6.2 mi West 11.5 mph - N/A   Mostly Cloudy
8:30 PM 59.0 °F 48.2 °F 67% 30.18 in 6.2 mi West 9.2 mph - N/A   Mostly Cloudy
9:00 PM 59.0 °F 48.2 °F 67% 30.18 in 6.2 mi West 9.2 mph - N/A   Mostly Cloudy
9:30 PM 59.0 °F 50.0 °F 72% 30.18 in 6.2 mi WSW 10.4 mph - N/A   Mostly Cloudy
10:00 PM 59.0 °F 50.0 °F 72% 30.21 in 6.2 mi West 10.4 mph - N/A   Mostly Cloudy
10:30 PM 59.0 °F 51.8 °F 77% 30.21 in 6.2 mi West 10.4 mph - N/A   Mostly Cloudy
11:00 PM 57.2 °F 51.8 °F 82% 30.21 in 6.2 mi West 11.5 mph - N/A   Mostly Cloudy
11:30 PM 57.2 °F 51.8 °F 82% 30.18 in 6.2 mi WSW 15.0 mph - N/A   Mostly Cloudy